Location: Unspecified
(17.6330°N, 0.0000°E)
Time: 13:02:56
(UTC+00:00)

S-56A Canister/Altair - Pass Details

Date: 25 June 2019
Orbit: 632 x 2500 km, 38.9° (Epoch: 17 July)

Event Time Altitude Azimuth Distance (km) Brightness Sun altitude
Rises 20:14:29 0° 317° (NW) 3,555 12.4 -20.8°
Reaches altitude 10° 20:17:46 10° 330° (NNW) 2,375 11.0 -21.5°
Maximum altitude 20:22:07 25° 26° (NNE) 1,371 8.9 -22.3°
Enters shadow 20:23:23 22° 51° (NE) 1,432 8.7 -22.6°
Drops below altitude 10° 20:25:51 10° 83° (E) 2,018 - -23.0°
Sets 20:28:23 0° 97° (E) 2,906 - -23.5°
